QPF
0.00 0.00 0.00 0.00 0.00 0.00 0.00 0.00 0.00 0.00 0.00 0.00 0.00 0.00 0.00 0.00 0.00 0.00 0.00 0.00 0.00 0.00 0.00 0.00 0.00 0.00 0.00 0.00 0.00 0.00 0.00 0.00 0.00 0.00 0.00 0.00 0.00 0.00 0.00 0.00 0.00 0.00 0.00
0.00 0.00 0.00 0.00 0.00 0.00 0.00 0.00 0.00 0.00 0.00 0.00 0.00 0.00 0.00 0.00 0.00 0.00 0.00 0.00 0.00 0.00 0.00 0.00 0.00 0.00 0.00 0.00 0.00 0.00 0.00 0.00 0.00 0.00 0.00 0.00 0.00 0.00 0.00 0.00 0.00 0.00 0.00
0.00 0.00 0.00 0.00 0.00 0.00 0.00 0.00 0.00 0.00 0.00 0.00 0.00 0.00 0.00 0.00 0.00 0.00 0.00 0.00 0.00 0.00 0.00 0.00 0.00 0.00 0.00 0.00 0.00 0.00 0.00 0.00 0.00 0.00 0.00 0.00 0.00 0.00 0.00 0.00 0.00 0.00 0.00
0.00 0.00 0.00 0.00 0.00 0.00 0.00 0.00 0.00 0.00 0.00 0.00 0.00 0.00 0.00 0.00 0.00 0.00 0.00 0.00 0.00 0.00 0.00 0.00 0.00 0.00 0.00 0.00 0.00 0.00 0.00 0.00 0.00 0.00 0.00 0.00 0.00 0.00 0.00 0.00 0.00 0.00 0.00
0.00 0.00 0.00 0.00 0.00 0.00 0.00 0.00 0.00 0.00 0.00 0.00 0.00 0.00 0.00 0.00 0.00 0.00 0.00 0.00 0.00 0.00 0.00 0.00 0.00 0.00 0.00 0.00 0.00 0.00 0.00 0.00 0.00 0.00 0.00 0.00 0.00 0.00 0.00 0.00 0.00 0.00 0.00
0.00 0.00 0.00 0.00 0.00 0.00 0.00 0.00 0.00 0.00 0.00 0.00 0.00 0.00 0.00 0.00 0.00 0.00 0.00 0.00 0.00 0.00 0.00 0.00 0.00 0.00 0.00 0.00 0.00 0.00 0.00 0.00 0.00 0.00 0.00 0.00 0.00 0.00 0.00 0.00 0.00 0.00 0.00
0.00 0.00 0.00 0.00 0.00 0.00 0.00 0.00 0.00 0.00 0.00 0.00 0.00 0.00 0.00 0.00 0.00 0.00 0.00 0.00 0.00 0.00 0.00 0.00 0.00 0.00 0.00 0.00 0.00 0.00 0.00 0.00 0.00 0.00 0.00 0.00 0.00 0.00 0.00 0.00 0.00 0.00 0.00
0.00 0.00 0.00 0.00 0.00 0.00 0.00 0.00 0.00 0.00 0.00 0.00 0.00 0.00 0.00 0.00 0.00 0.00 0.00 0.00 0.00 0.00 0.00 0.00 0.00 0.00 0.00 0.00 0.00 0.00 0.00 0.00 0.00 0.00 0.00 0.00 0.00 0.00 0.00 0.00 0.00 0.00 0.00
0.00 0.00 0.00 0.00 0.00 0.00 0.00 0.00 0.00 0.00 0.00 0.00 0.00 0.00 0.00 0.00 0.00 0.00 0.00 0.00 0.00 0.00 0.00 0.00 0.00 0.00 0.00 0.00 0.00 0.00 0.00 0.00 0.00 0.00 0.00 0.00 0.00 0.00 0.00 0.00 0.00 0.00 0.00
0.00 0.00 0.00 0.00 0.00 0.00 0.00 0.00 0.00 0.00 0.00 0.00 0.00 0.00 0.00 0.00 0.00 0.00 0.00 0.00 0.00 0.00 0.00 0.00 0.00 0.00 0.00 0.00 0.00 0.00 0.00 0.00 0.00 0.00 0.00 0.00 0.00 0.00 0.00 0.00 0.00 0.00 0.00
0.00 0.00 0.00 0.00 0.00 0.00 0.00 0.00 0.00 0.00 0.00 0.00 0.00 0.00 0.00 0.00 0.00 0.00 0.00 0.00 0.00 0.00 0.00 0.00 0.00 0.00 0.00 0.00 0.00 0.00 0.00 0.00 0.00 0.00 0.00 0.00 0.00 0.00 0.00 0.00 0.00 0.00 0.00
0.00 0.00 0.00 0.00 0.00 0.00 0.00 0.00 0.00 0.00 0.00 0.00 0.00 0.00 0.00 0.00 0.00 0.00 0.00 0.00 0.00 0.00 0.00 0.00 0.00 0.00 0.00 0.00 0.00 0.00 0.00 0.00 0.00 0.00 0.00 0.00 0.00 0.00 0.00 0.00 0.00 0.00 0.00
0.00 0.00 0.00 0.00 0.00 0.00 0.00 0.00 0.00 0.00 0.00 0.00 0.00 0.00 0.00 0.00 0.00 0.00 0.00 0.00 0.00 0.00 0.00 0.00 0.00 0.00 0.00 0.00 0.00 0.00 0.00 0.00 0.00 0.00 0.00 0.00 0.00 0.00 0.00 0.00 0.00 0.00 0.00
0.00 0.00 0.00 0.00 0.00 0.00 0.00 0.00 0.00 0.00 0.00 0.00 0.00 0.00 0.00 0.00 0.00 0.00 0.00 0.00 0.00 0.00 0.00 0.00 0.00 0.00 0.00 0.00 0.00 0.00 0.00 0.00 0.00 0.00 0.00 0.00 0.00 0.00 0.00 0.00 0.00 0.00 0.00
0.00 0.00 0.00 0.00 0.00 0.00 0.00 0.00 0.00 0.00 0.00 0.00 0.00 0.00 0.00 0.00 0.00 0.00 0.00 0.00 0.00 0.00 0.00 0.00 0.00 0.00 0.00 0.00 0.00 0.00 0.00 0.00 0.00 0.00 0.00 0.00 0.00 0.00 0.00 0.00 0.00 0.00 0.00
0.00 0.00 0.00 0.00 0.00 0.00 0.00 0.00 0.00 0.00 0.00 0.00 0.00 0.00 0.00 0.00 0.00 0.00 0.00 0.00 0.00 0.00 0.00 0.00 0.00 0.00 0.00 0.00 0.00 0.00 0.00 0.00 0.00 0.00 0.00 0.00 0.00 0.00 0.00 0.00 0.00 0.00 0.00
0.00 0.00 0.00 0.00 0.00 0.00 0.00 0.00 0.00 0.00 0.00 0.00 0.00 0.00 0.00 0.00 0.00 0.00 0.00 0.00 0.00 0.00 0.00 0.00 0.00 0.00 0.00 0.00 0.00 0.00 0.00 0.00 0.00 0.00 0.00 0.00 0.00 0.00 0.00 0.00 0.00 0.00 0.00
0.00 0.00 0.00 0.00 0.00 0.00 0.00 0.00 0.00 0.00 0.00 0.00 0.00 0.00 0.00 0.00 0.00 0.00 0.00 0.00 0.00 0.00 0.00 0.00 0.00 0.00 0.00 0.00 0.00 0.00 0.00 0.00 0.00 0.00 0.00 0.00 0.00 0.00 0.00 0.00 0.00 0.00 0.00
0.00 0.00 0.00 0.00 0.00 0.00 0.00 0.00 0.00 0.00 0.00 0.00 0.00 0.00 0.00 0.00 0.00 0.00 0.00 0.00 0.00 0.00 0.00 0.00 0.00 0.00 0.00 0.00 0.00 0.00 0.00 0.00 0.00 0.00 0.00 0.00 0.00 0.00 0.00 0.00 0.00 0.00 0.00
0.00 0.00 0.00 0.00 0.00 0.00 0.00 0.00 0.00 0.00 0.00 0.00 0.00 0.00 0.00 0.00 0.00 0.00 0.00 0.00 0.00 0.00 0.00 0.00 0.00 0.00 0.00 0.00 0.00 0.00 0.00 0.00 0.00 0.00 0.00 0.00 0.00 0.00 0.00 0.00 0.00 0.00 0.00
0.00 0.00 0.00 0.00 0.00 0.00 0.00 0.00 0.00 0.00 0.00 0.00 0.00 0.00 0.00 0.00 0.00 0.00 0.00 0.00 0.00 0.00 0.00 0.00 0.00 0.00 0.00 0.00 0.00 0.00 0.00 0.00 0.00 0.00 0.00 0.00 0.00 0.00 0.00 0.00 0.00 0.00 0.00
0.00 0.00 0.00 0.00 0.00 0.00 0.00 0.00 0.00 0.00 0.00 0.00 0.00 0.00 0.00 0.00 0.00 0.00 0.00 0.00 0.00 0.00 0.00 0.00 0.00 0.00 0.00 0.00 0.00 0.00 0.00 0.00 0.00 0.00 0.00 0.00 0.00 0.00 0.00 0.00 0.00 0.00 0.00
0.00 0.00 0.00 0.00 0.00 0.00 0.00 0.00 0.00 0.00 0.00 0.00 0.00 0.00 0.00 0.00 0.00 0.00 0.00 0.00 0.00 0.00 0.00 0.00 0.00 0.00 0.00 0.00 0.00 0.00 0.00 0.00 0.00 0.00 0.00 0.00 0.00 0.00 0.00 0.00 0.00 0.00 0.00
0.00 0.00 0.00 0.00 0.00 0.00 0.00 0.00 0.00 0.00 0.00 0.00 0.00 0.00 0.00 0.00 0.00 0.00 0.00 0.00 0.00 0.00 0.00 0.00 0.00 0.00 0.00 0.00 0.00 0.00 0.00 0.00 0.00 0.00 0.00 0.00 0.00 0.00 0.00 0.00 0.00 0.00 0.00
0.00 0.00 0.00 0.00 0.00 0.00 0.00 0.00 0.00 0.00 0.00 0.00 0.00 0.00 0.00 0.00 0.00 0.00 0.00 0.00 0.00 0.00 0.00 0.00 0.00 0.00 0.00 0.00 0.00 0.00 0.00 0.00 0.00 0.00 0.00 0.00 0.00 0.00 0.00 0.00 0.00 0.00 0.00
0.00 0.00 0.00 0.00 0.00 0.00 0.00 0.00 0.00 0.00 0.00 0.00 0.00 0.00 0.00 0.00 0.00 0.00 0.00 0.00 0.00 0.00 0.00 0.00 0.00 0.00 0.00 0.00 0.00 0.00 0.00 0.00 0.00 0.00 0.00 0.00 0.00 0.00 0.00 0.00 0.00 0.00 0.00
MSLP
1018.40 1018.86 1019.38 1020.08 1020.63 1021.51 1022.48 1023.35 1024.25 1025.05 1025.63 1026.30 1026.95 1027.56 1027.89 1028.32 1028.62 1029.03 1029.49 1029.82 1030.02 1030.26 1030.54 1030.71 1030.89 1030.96 1030.83 1030.97 1030.97 1030.79 1030.66 1030.54 1029.78 1028.30 1028.04 1027.31 1026.46 1025.64 1025.31 1024.91 1024.11 1023.22 1022.26
1018.59 1019.21 1019.74 1020.38 1020.91 1021.71 1022.56 1023.49 1024.23 1025.20 1026.00 1026.50 1027.08 1027.71 1028.10 1028.48 1028.91 1029.15 1029.54 1029.87 1030.06 1030.46 1030.77 1030.86 1030.98 1030.84 1030.91 1031.07 1031.00 1030.90 1030.70 1030.36 1029.90 1028.73 1028.12 1027.23 1026.64 1025.82 1025.09 1024.34 1023.81 1023.12 1022.39
1018.98 1019.60 1020.25 1020.65 1021.50 1021.85 1023.05 1023.54 1024.32 1025.46 1026.24 1026.86 1027.27 1027.71 1028.11 1028.59 1028.93 1029.29 1029.64 1029.94 1030.20 1030.39 1030.55 1030.71 1030.89 1030.79 1030.94 1030.90 1030.76 1030.56 1030.37 1030.26 1029.81 1029.17 1027.91 1027.56 1026.88 1025.82 1025.09 1024.61 1023.90 1023.26 1022.71
1019.23 1019.72 1020.16 1021.13 1021.84 1022.36 1023.26 1023.76 1024.67 1025.59 1026.34 1027.07 1027.57 1027.88 1028.30 1028.79 1028.84 1029.18 1029.63 1029.91 1029.87 1030.04 1030.22 1030.68 1030.94 1031.03 1031.09 1030.95 1030.77 1030.64 1030.34 1030.01 1029.63 1029.32 1028.40 1027.30 1026.80 1026.01 1025.40 1024.81 1023.71 1023.69 1023.25
1019.64 1019.88 1020.57 1021.37 1022.09 1022.86 1023.48 1024.35 1025.39 1025.93 1026.75 1027.11 1027.76 1028.18 1028.44 1028.88 1028.96 1029.08 1029.55 1029.69 1029.71 1030.09 1030.34 1030.47 1030.61 1030.83 1030.87 1030.85 1030.56 1030.46 1030.21 1029.68 1029.03 1028.80 1028.17 1027.35 1026.52 1025.90 1025.74 1025.61 1025.43 1024.64 1024.01
1019.80 1020.34 1021.02 1021.75 1022.41 1023.31 1024.06 1024.69 1025.78 1026.26 1026.94 1027.27 1027.78 1028.18 1028.50 1028.75 1028.58 1028.69 1029.18 1029.31 1029.46 1029.82 1030.21 1030.50 1030.67 1030.72 1030.55 1030.19 1029.93 1029.55 1029.46 1029.14 1028.61 1028.56 1028.09 1027.42 1026.72 1026.41 1026.15 1026.01 1025.76 1025.08 1024.92
1019.94 1020.69 1021.30 1021.93 1022.66 1023.41 1024.23 1024.96 1025.85 1026.35 1027.04 1027.61 1028.06 1028.46 1028.71 1028.78 1028.54 1028.81 1028.94 1029.28 1029.59 1029.86 1029.95 1030.00 1030.02 1029.97 1030.00 1030.08 1029.71 1029.37 1029.14 1028.92 1028.25 1028.34 1028.00 1027.70 1026.95 1026.57 1026.29 1026.01 1026.00 1025.72 1025.44
1020.12 1020.78 1021.52 1021.93 1022.87 1023.77 1024.50 1025.16 1025.93 1026.33 1027.03 1027.76 1028.30 1028.85 1029.04 1028.95 1028.58 1028.66 1028.65 1029.08 1029.37 1029.46 1029.52 1029.66 1029.85 1029.81 1029.83 1029.62 1029.26 1028.77 1028.58 1028.32 1027.80 1027.74 1027.68 1027.55 1027.17 1026.64 1026.32 1026.24 1026.15 1025.66 1025.25
1019.80 1020.55 1021.25 1021.80 1022.76 1023.71 1024.56 1025.34 1026.23 1026.83 1027.46 1027.89 1028.47 1028.84 1028.96 1029.02 1028.57 1028.36 1028.69 1029.11 1029.30 1029.37 1029.46 1029.77 1029.81 1029.71 1029.20 1028.75 1028.82 1028.60 1028.22 1027.60 1027.13 1026.85 1027.00 1026.82 1026.75 1026.64 1026.13 1026.62 1026.59 1026.14 1025.99
1019.15 1020.07 1020.95 1021.77 1022.58 1023.67 1024.50 1025.27 1026.01 1026.79 1027.41 1028.03 1028.61 1028.92 1029.13 1029.20 1028.49 1028.38 1028.58 1028.89 1029.14 1029.30 1029.51 1029.47 1029.29 1029.09 1028.69 1028.29 1028.17 1027.96 1028.00 1027.46 1026.87 1026.76 1026.81 1026.55 1026.96 1026.92 1026.52 1026.85 1026.77 1026.50 1026.30
1018.60 1019.98 1021.08 1022.02 1022.75 1023.46 1024.40 1025.19 1025.97 1026.83 1027.61 1028.19 1028.65 1029.11 1029.20 1029.39 1029.21 1028.63 1028.48 1028.86 1029.09 1029.39 1029.35 1029.08 1029.00 1028.75 1028.14 1027.72 1027.21 1027.16 1026.94 1026.46 1026.28 1026.56 1026.49 1026.56 1027.08 1026.88 1026.62 1026.64 1026.53 1026.28 1026.01
1018.55 1019.94 1021.20 1022.15 1023.02 1023.70 1024.49 1025.47 1026.20 1026.85 1027.53 1028.18 1028.68 1029.10 1029.20 1029.40 1029.21 1028.86 1028.81 1028.69 1028.69 1029.27 1029.31 1029.06 1028.82 1028.09 1027.53 1026.92 1026.65 1026.44 1025.96 1025.70 1025.91 1026.10 1025.98 1025.87 1026.17 1026.05 1026.16 1026.33 1026.29 1026.09 1026.00
1018.63 1020.00 1021.32 1022.39 1023.09 1023.82 1024.62 1025.55 1026.17 1026.72 1027.29 1027.94 1028.38 1028.86 1029.19 1029.38 1029.38 1029.14 1028.81 1028.72 1028.93 1028.94 1028.77 1028.24 1027.57 1027.24 1027.01 1027.05 1026.58 1025.94 1025.79 1025.81 1025.54 1025.44 1025.31 1025.06 1025.19 1025.16 1025.49 1025.88 1025.97 1025.83 1025.87
1018.67 1020.18 1021.36 1022.23 1023.34 1024.17 1024.90 1025.34 1025.73 1026.40 1026.99 1027.56 1028.15 1028.58 1028.83 1029.11 1029.15 1029.08 1028.78 1028.97 1028.93 1028.70 1028.43 1028.39 1027.53 1027.09 1026.70 1026.57 1026.36 1025.99 1025.90 1025.84 1025.59 1024.99 1024.67 1024.48 1024.69 1025.02 1025.29 1025.51 1025.74 1025.87 1025.98
1018.96 1020.16 1021.22 1022.27 1023.27 1024.30 1024.93 1025.39 1025.73 1026.19 1026.50 1026.99 1027.59 1027.68 1028.51 1028.74 1028.84 1028.27 1028.02 1028.31 1028.27 1028.12 1027.95 1028.02 1027.50 1027.34 1026.95 1026.69 1026.44 1026.08 1025.72 1025.54 1025.26 1024.58 1024.21 1024.08 1024.15 1024.40 1024.59 1024.87 1025.07 1025.51 1025.96
1018.91 1020.01 1021.06 1022.15 1023.28 1024.11 1024.80 1025.64 1025.94 1026.20 1026.49 1026.82 1026.70 1027.70 1028.41 1028.37 1028.12 1027.98 1027.84 1027.59 1027.57 1027.65 1027.97 1028.50 1027.99 1027.83 1027.70 1027.34 1027.08 1026.57 1025.97 1025.20 1024.67 1024.19 1023.79 1023.69 1023.78 1024.01 1024.19 1024.49 1024.73 1024.99 1025.54
1018.26 1019.76 1020.93 1021.95 1022.92 1023.78 1024.47 1025.16 1026.23 1027.03 1027.01 1026.82 1027.43 1027.80 1028.05 1027.97 1027.84 1027.65 1027.46 1027.52 1027.80 1027.74 1028.56 1028.86 1028.77 1028.63 1028.38 1027.94 1027.62 1027.15 1026.25 1025.37 1024.58 1024.15 1023.58 1023.24 1023.18 1023.11 1023.46 1023.89 1024.35 1024.67 1025.12
1018.59 1019.49 1020.27 1021.32 1022.28 1023.24 1023.87 1024.56 1025.30 1026.04 1026.81 1027.50 1028.22 1028.08 1027.87 1027.95 1027.71 1027.28 1027.50 1028.07 1028.60 1028.61 1029.11 1029.30 1029.23 1029.14 1028.80 1028.51 1028.03 1027.41 1026.24 1025.24 1024.70 1024.00 1023.30 1022.89 1022.66 1022.58 1022.88 1023.26 1023.70 1023.98 1024.63
1018.82 1019.84 1020.66 1021.59 1022.34 1023.08 1023.86 1024.49 1025.20 1025.99 1026.53 1027.36 1028.13 1028.26 1028.33 1028.03 1027.74 1027.90 1028.45 1029.34 1029.39 1029.58 1029.53 1029.24 1029.10 1029.09 1028.90 1028.72 1028.28 1027.35 1026.54 1025.78 1025.20 1024.38 1023.50 1022.88 1022.40 1022.18 1022.46 1022.68 1023.06 1023.39 1023.97
1019.16 1019.75 1020.53 1021.58 1022.54 1023.49 1024.05 1024.78 1025.52 1026.03 1026.88 1027.30 1027.91 1028.09 1028.35 1028.72 1028.42 1029.11 1029.44 1029.61 1029.57 1029.56 1029.49 1029.43 1029.26 1029.03 1028.86 1028.56 1027.98 1027.07 1026.50 1025.83 1025.08 1024.21 1023.68 1023.14 1022.47 1021.97 1021.77 1021.96 1022.36 1022.99 1023.47
1019.80 1020.56 1021.15 1022.18 1022.80 1023.37 1024.17 1024.91 1025.42 1026.05 1026.72 1027.12 1027.79 1028.13 1028.13 1028.47 1029.08 1029.50 1029.49 1029.44 1029.30 1029.34 1029.48 1029.43 1029.12 1028.92 1028.58 1028.12 1027.51 1026.96 1026.33 1025.44 1024.80 1024.29 1023.38 1022.79 1022.27 1022.24 1021.81 1021.65 1021.84 1022.51 1022.98
1021.20 1021.62 1022.23 1022.59 1023.15 1023.78 1024.38 1024.80 1025.36 1025.91 1026.50 1027.03 1027.37 1027.88 1027.98 1028.74 1029.20 1029.26 1029.10 1029.09 1029.33 1029.35 1029.19 1029.08 1028.77 1028.49 1028.04 1027.72 1027.29 1026.80 1026.25 1025.92 1024.98 1024.16 1023.63 1022.97 1022.18 1021.94 1021.84 1021.71 1021.88 1022.28 1022.81
1021.83 1022.46 1023.03 1023.63 1023.91 1024.27 1024.76 1025.17 1025.64 1025.95 1026.28 1026.38 1027.11 1027.88 1028.23 1028.38 1028.72 1028.74 1028.58 1028.73 1028.91 1028.88 1028.66 1028.58 1028.52 1027.98 1027.73 1027.42 1027.05 1026.61 1026.06 1025.76 1025.28 1024.34 1023.49 1023.03 1022.49 1022.13 1022.02 1021.87 1022.00 1022.29 1022.73
1021.93 1022.47 1022.89 1023.54 1024.06 1024.47 1024.87 1025.38 1025.81 1026.04 1026.12 1026.59 1027.15 1027.57 1027.85 1028.01 1028.09 1028.28 1028.29 1028.27 1028.35 1028.34 1028.17 1027.96 1027.65 1027.52 1027.05 1026.55 1026.25 1026.06 1025.78 1025.42 1024.72 1024.04 1023.58 1023.15 1022.69 1022.25 1022.07 1022.06 1022.09 1022.29 1022.48
1022.22 1022.63 1023.17 1023.76 1024.22 1024.46 1024.61 1024.97 1025.61 1026.03 1026.46 1026.72 1027.02 1027.18 1027.26 1027.49 1027.65 1027.81 1027.94 1028.04 1028.07 1027.83 1027.33 1027.16 1027.04 1026.80 1026.41 1025.98 1025.53 1025.17 1024.96 1024.68 1024.16 1023.56 1023.28 1023.00 1022.69 1022.36 1022.21 1022.11 1022.03 1022.24 1022.40
1023.03 1023.38 1023.59 1023.82 1023.97 1024.29 1024.67 1025.06 1025.60 1025.95 1026.18 1026.43 1026.59 1026.74 1026.91 1027.06 1027.13 1027.32 1027.39 1027.48 1027.26 1026.99 1026.62 1026.24 1026.07 1025.88 1025.64 1025.29 1024.90 1024.48 1024.12 1023.58 1023.16 1022.81 1022.65 1022.60 1022.51 1022.29 1022.08 1021.92 1021.90 1022.07 1022.27
Thickness
5662 5659 5655 5650 5646 5637 5628 5620 5612 5604 5597 5590 5582 5575 5569 5562 5556 5549 5541 5532 5526 5518 5510 5502 5494 5487 5480 5471 5464 5458 5452 5447 5449 5455 5446 5443 5441 5439 5429 5416 5406 5399 5393
5651 5647 5643 5638 5635 5627 5620 5611 5603 5593 5586 5579 5572 5564 5558 5552 5544 5537 5529 5522 5514 5505 5496 5489 5482 5476 5468 5459 5453 5447 5441 5436 5434 5439 5431 5428 5422 5417 5411 5404 5391 5378 5368
5637 5633 5629 5627 5620 5616 5606 5600 5592 5582 5575 5567 5561 5554 5548 5540 5533 5525 5517 5509 5501 5494 5486 5478 5472 5466 5456 5449 5443 5437 5431 5424 5419 5416 5419 5407 5400 5398 5395 5383 5368 5360 5344
5624 5621 5619 5611 5605 5600 5593 5587 5579 5570 5562 5554 5547 5542 5536 5528 5523 5515 5505 5497 5492 5485 5477 5468 5459 5452 5444 5437 5430 5422 5417 5411 5405 5398 5395 5393 5383 5376 5366 5362 5360 5337 5327
5609 5609 5604 5597 5592 5585 5579 5571 5562 5556 5547 5542 5535 5529 5523 5515 5510 5504 5494 5487 5480 5471 5463 5456 5449 5440 5432 5423 5416 5408 5402 5398 5396 5388 5381 5376 5369 5360 5346 5333 5316 5306 5298
5596 5594 5588 5583 5577 5569 5562 5556 5547 5541 5535 5531 5525 5518 5510 5504 5499 5493 5485 5477 5469 5460 5450 5442 5434 5427 5420 5415 5409 5401 5393 5387 5382 5372 5363 5358 5349 5337 5323 5309 5298 5291 5281
5583 5578 5574 5569 5564 5557 5550 5543 5535 5530 5524 5517 5511 5504 5497 5491 5486 5478 5470 5463 5454 5446 5439 5432 5425 5419 5413 5404 5397 5389 5380 5371 5365 5357 5349 5337 5331 5319 5311 5296 5275 5266 5253
5570 5567 5561 5558 5551 5542 5536 5530 5524 5520 5512 5503 5496 5488 5482 5477 5472 5465 5458 5451 5442 5436 5429 5421 5415 5409 5401 5393 5387 5381 5372 5362 5356 5349 5338 5325 5312 5303 5292 5280 5265 5255 5244
5563 5557 5552 5547 5539 5530 5523 5516 5509 5503 5494 5488 5481 5474 5469 5463 5458 5453 5445 5437 5429 5422 5415 5406 5400 5395 5390 5385 5376 5365 5358 5354 5346 5334 5323 5313 5301 5290 5280 5264 5248 5237 5224
5556 5548 5541 5534 5527 5518 5512 5505 5497 5489 5481 5473 5466 5460 5453 5447 5444 5438 5432 5424 5416 5407 5400 5393 5388 5383 5377 5372 5365 5355 5347 5343 5336 5325 5311 5302 5291 5279 5266 5251 5238 5230 5219
5545 5534 5526 5520 5513 5507 5499 5491 5483 5473 5465 5457 5449 5442 5438 5432 5426 5421 5418 5411 5403 5392 5385 5381 5376 5370 5366 5361 5356 5347 5338 5334 5327 5313 5303 5292 5279 5268 5255 5242 5230 5221 5213
5531 5522 5513 5505 5498 5491 5484 5474 5465 5458 5450 5440 5433 5426 5422 5416 5410 5406 5402 5397 5391 5380 5373 5368 5363 5358 5354 5351 5346 5339 5332 5324 5315 5304 5295 5286 5270 5259 5245 5231 5220 5214 5209
5516 5507 5497 5489 5483 5476 5466 5456 5449 5443 5435 5426 5421 5413 5406 5399 5395 5391 5386 5381 5374 5369 5364 5360 5356 5351 5343 5334 5328 5324 5318 5311 5305 5298 5289 5279 5264 5250 5235 5223 5213 5208 5202
5501 5490 5482 5475 5465 5456 5448 5442 5435 5427 5420 5414 5407 5399 5391 5385 5380 5377 5374 5366 5359 5354 5349 5343 5341 5336 5330 5322 5316 5309 5302 5295 5289 5287 5278 5267 5253 5239 5225 5214 5205 5201 5194
5485 5476 5468 5459 5450 5438 5429 5423 5418 5411 5408 5401 5393 5388 5376 5370 5365 5364 5361 5353 5347 5342 5338 5332 5325 5320 5315 5309 5302 5295 5288 5282 5276 5271 5265 5255 5243 5231 5221 5208 5200 5194 5186
5469 5461 5452 5441 5430 5422 5414 5404 5401 5396 5391 5386 5382 5370 5362 5357 5353 5349 5345 5340 5334 5328 5321 5312 5307 5304 5297 5292 5286 5282 5276 5272 5265 5260 5252 5243 5232 5222 5213 5201 5193 5188 5182
5458 5445 5435 5427 5418 5410 5402 5395 5384 5375 5373 5369 5361 5355 5349 5344 5339 5334 5330 5324 5318 5313 5301 5292 5287 5281 5277 5273 5267 5263 5261 5257 5253 5246 5241 5232 5224 5217 5207 5196 5188 5183 5178
5439 5432 5427 5418 5410 5400 5392 5385 5378 5369 5359 5349 5342 5339 5335 5328 5324 5322 5317 5308 5297 5292 5282 5275 5268 5262 5258 5253 5250 5246 5246 5244 5238 5233 5230 5223 5215 5209 5198 5189 5183 5176 5172
5423 5415 5408 5400 5393 5385 5377 5368 5359 5352 5346 5337 5327 5322 5317 5312 5308 5302 5295 5284 5277 5269 5262 5257 5251 5246 5242 5237 5232 5231 5229 5226 5221 5218 5215 5211 5206 5201 5191 5185 5179 5173 5167
5406 5400 5393 5384 5374 5365 5357 5349 5341 5334 5325 5317 5309 5305 5298 5291 5285 5276 5270 5263 5257 5252 5246 5239 5234 5230 5226 5221 5219 5218 5214 5210 5207 5206 5202 5198 5195 5190 5186 5180 5174 5165 5160
5385 5376 5371 5362 5355 5348 5339 5331 5324 5317 5309 5301 5292 5286 5282 5272 5264 5256 5251 5246 5242 5236 5230 5224 5220 5216 5212 5209 5207 5203 5199 5198 5195 5191 5190 5188 5185 5178 5174 5171 5167 5159 5153
5357 5352 5346 5341 5334 5327 5319 5313 5306 5299 5291 5283 5274 5266 5264 5252 5243 5239 5235 5231 5225 5220 5216 5211 5206 5203 5200 5196 5192 5188 5183 5178 5177 5177 5174 5172 5172 5167 5162 5158 5155 5149 5143
5332 5326 5319 5311 5307 5302 5295 5290 5284 5278 5271 5265 5256 5246 5239 5234 5227 5222 5220 5215 5209 5204 5201 5199 5193 5190 5186 5182 5178 5174 5170 5163 5160 5160 5160 5158 5155 5152 5146 5144 5141 5136 5132
5309 5303 5297 5289 5284 5279 5274 5267 5260 5255 5249 5241 5233 5226 5221 5215 5211 5208 5204 5199 5195 5191 5187 5184 5181 5176 5172 5169 5165 5160 5156 5150 5148 5147 5146 5143 5139 5136 5131 5128 5126 5123 5122
5284 5279 5272 5265 5259 5254 5249 5243 5235 5229 5223 5218 5213 5208 5203 5199 5195 5191 5187 5184 5178 5175 5172 5169 5165 5161 5158 5154 5152 5148 5143 5138 5136 5135 5132 5128 5123 5119 5115 5113 5112 5110 5108
5255 5250 5247 5242 5238 5234 5229 5223 5215 5208 5202 5198 5194 5189 5185 5182 5179 5175 5172 5169 5166 5162 5159 5156 5151 5149 5145 5140 5137 5133 5130 5127 5126 5123 5119 5114 5109 5104 5101 5100 5099 5097 5096